Avian Flight Center Webcam (1 minute updates)

Looking East from Avian at mid-field (Taxiway E) towards Runway 20-2 (Click for full size image). Image will update automatically every minute.

Bremerton Airport Live Webcam

KPWT 301035Z 19003KT 2SM CLR 11/11 A3016 RMK AO1 VIS 1 1/4V5

Time-lapse movie of yesterday's webcam images

If you are unable to view the movie, download and install the DivX Codec here